DLH6DE ENBR-EDDK

Flight info

Callsign DLH6DE
Flight time 1h 28m
Altitude 35000
Route TINIG DCT DOSUR DCT LARBU Z189 RUNER T858 KOPAG KOPAG1C
Aircraft A321/M-SDE3FGHIRWY/LB1

Departure

Time 2026-05-06 18:15
Airport Bergen Airport, Flesland (ENBR)

Arrival

Time 2026-05-06 19:43
Airport Cologne Bonn Airport (EDDK)
Time Latitude Longitude Altitude Speed Heading
2026-05-06 17:31 60.28985 5.22649 173 ft 0 kts 156°
2026-05-06 18:03 60.28997 5.22639 173 ft 4 kts 136°
2026-05-06 18:04 60.29001 5.22614 173 ft 4 kts 96°
2026-05-06 18:04 60.28996 5.22612 173 ft 3 kts 170°
2026-05-06 18:04 60.29023 5.22603 173 ft 4 kts 172°
2026-05-06 18:04 60.29050 5.22594 174 ft 3 kts 164°
2026-05-06 18:05 60.29053 5.22592 174 ft 0 kts 163°
2026-05-06 18:08 60.29043 5.22580 173 ft 3 kts 229°
2026-05-06 18:08 60.29031 5.22488 170 ft 10 kts 260°
2026-05-06 18:08 60.29064 5.22333 166 ft 15 kts 298°
2026-05-06 18:08 60.29144 5.22199 163 ft 17 kts 348°
2026-05-06 18:09 60.29260 5.22165 163 ft 17 kts 350°
2026-05-06 18:09 60.29388 5.22122 158 ft 20 kts 351°
2026-05-06 18:09 60.29535 5.22072 153 ft 24 kts 351°
2026-05-06 18:09 60.29713 5.22015 148 ft 26 kts 350°
2026-05-06 18:10 60.29887 5.21955 153 ft 24 kts 351°
2026-05-06 18:10 60.30047 5.21901 159 ft 22 kts 350°
2026-05-06 18:10 60.30187 5.21855 164 ft 20 kts 351°
2026-05-06 18:10 60.30320 5.21810 169 ft 18 kts 350°
2026-05-06 18:11 60.30435 5.21770 173 ft 17 kts 350°
2026-05-06 18:11 60.30540 5.21736 178 ft 14 kts 351°
2026-05-06 18:11 60.30628 5.21701 181 ft 12 kts 340°
2026-05-06 18:11 60.30663 5.21597 182 ft 8 kts 269°
2026-05-06 18:12 60.30662 5.21574 182 ft 0 kts 264°
2026-05-06 18:13 60.30661 5.21559 183 ft 4 kts 264°
2026-05-06 18:13 60.30643 5.21434 183 ft 12 kts 236°
2026-05-06 18:14 60.30557 5.21410 179 ft 15 kts 170°
2026-05-06 18:14 60.30399 5.21462 170 ft 44 kts 171°
2026-05-06 18:14 60.29835 5.21654 156 ft 117 kts 170°
2026-05-06 18:14 60.28834 5.21987 207 ft 168 kts 171°
2026-05-06 18:15 60.27700 5.22370 1014 ft 165 kts 172°
2026-05-06 18:15 60.26569 5.22755 1704 ft 171 kts 172°
2026-05-06 18:15 60.25316 5.23175 1958 ft 193 kts 172°
2026-05-06 18:15 60.23934 5.23637 2287 ft 210 kts 173°
2026-05-06 18:16 60.22431 5.24136 2557 ft 229 kts 172°
2026-05-06 18:16 60.20780 5.24685 2756 ft 253 kts 172°
2026-05-06 18:16 60.18980 5.25288 3215 ft 268 kts 172°
2026-05-06 18:16 60.17129 5.25922 3950 ft 271 kts 172°
2026-05-06 18:17 60.15284 5.26574 4848 ft 268 kts 168°
2026-05-06 18:17 60.13605 5.28163 5618 ft 272 kts 141°
2026-05-06 18:17 60.12248 5.30874 6233 ft 281 kts 133°
2026-05-06 18:17 60.10923 5.33797 6919 ft 283 kts 133°
2026-05-06 18:18 60.09589 5.36717 7639 ft 285 kts 133°
2026-05-06 18:18 60.08245 5.39657 8379 ft 286 kts 133°
2026-05-06 18:18 60.06902 5.42621 9118 ft 288 kts 133°
2026-05-06 18:18 60.05542 5.45621 9707 ft 296 kts 133°
2026-05-06 18:19 60.04129 5.48703 10186 ft 306 kts 133°
2026-05-06 18:19 60.02646 5.51960 10344 ft 328 kts 133°
2026-05-06 18:19 60.01085 5.55491 10478 ft 348 kts 127°
2026-05-06 18:19 59.99938 5.59876 10609 ft 366 kts 106°
2026-05-06 18:20 59.99597 5.65002 10758 ft 379 kts 86°
2026-05-06 18:20 59.99711 5.70328 11102 ft 387 kts 85°
2026-05-06 18:20 59.99840 5.75734 11577 ft 393 kts 85°
2026-05-06 18:20 59.99971 5.81230 12052 ft 399 kts 86°
2026-05-06 18:21 60.00056 5.84909 12355 ft 402 kts 86°
2026-05-06 18:21 60.00182 5.90537 12821 ft 408 kts 86°
2026-05-06 18:21 60.00304 5.96239 13288 ft 414 kts 86°
2026-05-06 18:21 60.00422 6.02026 13775 ft 419 kts 86°
2026-05-06 18:22 60.00574 6.09816 14413 ft 426 kts 87°
2026-05-06 18:22 60.00648 6.13820 14732 ft 429 kts 88°
2026-05-06 18:22 60.00423 6.19781 15216 ft 432 kts 102°
2026-05-06 18:22 59.99565 6.25539 15673 ft 433 kts 115°
2026-05-06 18:23 59.98122 6.30803 16134 ft 432 kts 129°
2026-05-06 18:23 59.96168 6.35311 16582 ft 428 kts 142°
2026-05-06 18:23 59.93813 6.38867 17033 ft 422 kts 155°
2026-05-06 18:23 59.91186 6.41346 17479 ft 416 kts 167°
2026-05-06 18:24 59.88463 6.43082 17925 ft 416 kts 169°
2026-05-06 18:24 59.85691 6.44827 18386 ft 419 kts 169°
2026-05-06 18:24 59.82908 6.46588 18755 ft 421 kts 169°
2026-05-06 18:24 59.80102 6.48362 19122 ft 424 kts 169°
2026-05-06 18:25 59.77282 6.50144 19532 ft 426 kts 169°
2026-05-06 18:25 59.74452 6.51931 19974 ft 429 kts 169°
2026-05-06 18:25 59.71596 6.53730 20349 ft 431 kts 169°
2026-05-06 18:25 59.68733 6.55538 20722 ft 433 kts 169°
2026-05-06 18:26 59.65854 6.57345 21139 ft 434 kts 170°
2026-05-06 18:26 59.62924 6.58585 21509 ft 428 kts 179°
2026-05-06 18:26 59.59972 6.59420 21883 ft 430 kts 179°
2026-05-06 18:26 59.56998 6.60238 22246 ft 432 kts 179°
2026-05-06 18:27 59.54009 6.61060 22538 ft 437 kts 179°
2026-05-06 18:27 59.50969 6.61889 22675 ft 444 kts 179°
2026-05-06 18:27 59.47886 6.62719 22821 ft 450 kts 179°
2026-05-06 18:27 59.44758 6.63554 22965 ft 457 kts 179°
2026-05-06 18:28 59.41619 6.65026 23083 ft 471 kts 168°
2026-05-06 18:28 59.38488 6.66984 23323 ft 474 kts 168°
2026-05-06 18:28 59.35385 6.68950 23578 ft 476 kts 168°
2026-05-06 18:28 59.32232 6.70963 23819 ft 476 kts 168°
2026-05-06 18:29 59.29091 6.72966 24147 ft 475 kts 168°
2026-05-06 18:29 59.25953 6.74955 24484 ft 473 kts 168°
2026-05-06 18:29 59.22827 6.76930 24821 ft 471 kts 169°
2026-05-06 18:29 59.19714 6.78894 25178 ft 469 kts 169°
2026-05-06 18:30 59.16606 6.80850 25541 ft 467 kts 169°
2026-05-06 18:30 59.13522 6.82783 25827 ft 465 kts 168°
2026-05-06 18:30 59.10442 6.84700 26143 ft 464 kts 169°
2026-05-06 18:30 59.07371 6.86606 26465 ft 463 kts 169°
2026-05-06 18:31 59.04303 6.88507 26778 ft 462 kts 169°
2026-05-06 18:31 59.01245 6.90398 27118 ft 460 kts 169°
2026-05-06 18:31 58.98194 6.92280 27456 ft 459 kts 169°
2026-05-06 18:31 58.95156 6.94158 27820 ft 458 kts 169°
2026-05-06 18:32 58.92125 6.96037 28161 ft 457 kts 169°
2026-05-06 18:32 58.89104 6.97907 28499 ft 456 kts 169°
2026-05-06 18:32 58.86089 6.99763 28876 ft 453 kts 170°
2026-05-06 18:32 58.83087 7.01607 29179 ft 452 kts 169°
2026-05-06 18:33 58.80090 7.03441 29470 ft 452 kts 169°
2026-05-06 18:33 58.77096 7.05269 29787 ft 451 kts 169°
2026-05-06 18:33 58.74107 7.07091 30107 ft 450 kts 169°
2026-05-06 18:33 58.71124 7.08904 30377 ft 449 kts 169°
2026-05-06 18:34 58.68148 7.10708 30627 ft 449 kts 169°
2026-05-06 18:34 58.65166 7.12516 30865 ft 449 kts 169°
2026-05-06 18:34 58.62183 7.14325 31110 ft 448 kts 169°
2026-05-06 18:34 58.59209 7.16130 31342 ft 448 kts 169°
2026-05-06 18:35 58.56234 7.17936 31577 ft 448 kts 169°
2026-05-06 18:35 58.53306 7.19704 31800 ft 448 kts 169°
2026-05-06 18:35 58.50335 7.21487 32024 ft 447 kts 169°
2026-05-06 18:35 58.47366 7.23264 32242 ft 447 kts 169°
2026-05-06 18:36 58.44393 7.25042 32476 ft 447 kts 169°
2026-05-06 18:36 58.41430 7.26814 32693 ft 447 kts 169°
2026-05-06 18:36 58.38462 7.28591 32913 ft 447 kts 169°
2026-05-06 18:36 58.35500 7.30361 33133 ft 446 kts 169°
2026-05-06 18:37 58.32538 7.32123 33351 ft 446 kts 169°
2026-05-06 18:37 58.29576 7.33882 33550 ft 446 kts 169°
2026-05-06 18:37 58.26527 7.35692 33721 ft 446 kts 169°
2026-05-06 18:37 58.23658 7.37401 33958 ft 445 kts 169°
2026-05-06 18:38 58.20710 7.39151 34141 ft 444 kts 169°
2026-05-06 18:38 58.17756 7.40896 34271 ft 444 kts 169°
2026-05-06 18:38 58.14810 7.42628 34453 ft 443 kts 169°
2026-05-06 18:38 58.11868 7.44356 34611 ft 443 kts 169°
2026-05-06 18:39 58.08923 7.46084 34749 ft 443 kts 169°
2026-05-06 18:39 58.05976 7.47811 34899 ft 443 kts 169°
2026-05-06 18:40 57.97067 7.53001 34966 ft 451 kts 169°
2026-05-06 18:40 57.91051 7.56487 34990 ft 453 kts 169°
2026-05-06 18:41 57.85035 7.59982 34981 ft 453 kts 169°
2026-05-06 18:41 57.79006 7.63474 34984 ft 453 kts 169°
2026-05-06 18:42 57.72960 7.66955 34964 ft 457 kts 169°
2026-05-06 18:42 57.66869 7.70448 34977 ft 457 kts 168°
2026-05-06 18:43 57.60836 7.73914 35003 ft 456 kts 168°
2026-05-06 18:43 57.54773 7.77366 35018 ft 455 kts 168°
2026-05-06 18:44 57.48712 7.80801 35017 ft 455 kts 168°
2026-05-06 18:44 57.42668 7.84219 35026 ft 454 kts 169°
2026-05-06 18:45 57.36637 7.87621 35002 ft 452 kts 169°
2026-05-06 18:45 57.30621 7.90995 35015 ft 451 kts 169°
2026-05-06 18:46 57.24610 7.94362 35023 ft 451 kts 169°
2026-05-06 18:46 57.18602 7.97716 35027 ft 451 kts 169°
2026-05-06 18:47 57.12597 8.01053 35023 ft 451 kts 169°
2026-05-06 18:47 57.06599 8.04385 35029 ft 450 kts 169°
2026-05-06 18:48 57.00598 8.07691 35029 ft 450 kts 169°
2026-05-06 18:48 56.94598 8.10989 35025 ft 450 kts 169°
2026-05-06 18:49 56.88597 8.14285 35034 ft 450 kts 169°
2026-05-06 18:49 56.82601 8.17571 35006 ft 450 kts 168°
2026-05-06 18:50 56.76610 8.20838 34998 ft 449 kts 169°
2026-05-06 18:50 56.70614 8.24084 35014 ft 449 kts 169°
2026-05-06 18:51 56.64622 8.27329 35020 ft 449 kts 169°
2026-05-06 18:51 56.58628 8.30560 35024 ft 449 kts 169°
2026-05-06 18:52 56.52639 8.33784 35011 ft 449 kts 168°
2026-05-06 18:52 56.46677 8.36975 35001 ft 449 kts 168°
2026-05-06 18:53 56.40679 8.40179 35002 ft 450 kts 168°
2026-05-06 18:53 56.34673 8.43386 35015 ft 450 kts 168°
2026-05-06 18:54 56.28673 8.46569 35007 ft 450 kts 169°
2026-05-06 18:54 56.22664 8.49746 34978 ft 450 kts 168°
2026-05-06 18:55 56.16654 8.52919 35000 ft 450 kts 168°
2026-05-06 18:55 56.10639 8.56065 34989 ft 450 kts 168°
2026-05-06 18:56 56.04624 8.59222 34995 ft 450 kts 168°
2026-05-06 18:56 55.98614 8.62373 34978 ft 450 kts 168°
2026-05-06 18:57 55.92602 8.65491 34976 ft 450 kts 168°
2026-05-06 18:57 55.86584 8.68599 34984 ft 450 kts 168°
2026-05-06 18:58 55.80602 8.71686 34988 ft 451 kts 168°
2026-05-06 18:58 55.74580 8.74796 34988 ft 451 kts 168°
2026-05-06 18:59 55.68557 8.77899 34990 ft 451 kts 168°
2026-05-06 18:59 55.62533 8.80982 34988 ft 451 kts 168°
2026-05-06 19:00 55.56504 8.84053 34982 ft 451 kts 168°
2026-05-06 19:00 55.50474 8.87125 34990 ft 451 kts 168°
2026-05-06 19:01 55.44443 8.90189 34968 ft 451 kts 168°
2026-05-06 19:01 55.38418 8.93238 34971 ft 451 kts 168°
2026-05-06 19:02 55.32395 8.96284 34965 ft 451 kts 168°
2026-05-06 19:02 55.26369 8.99320 34968 ft 451 kts 168°
2026-05-06 19:03 55.20335 9.02336 34970 ft 451 kts 168°
2026-05-06 19:03 55.14292 9.05344 34956 ft 451 kts 167°
2026-05-06 19:04 55.08304 9.08325 34964 ft 451 kts 167°
2026-05-06 19:04 55.02270 9.11324 34966 ft 451 kts 167°
2026-05-06 19:05 54.96231 9.14303 34966 ft 451 kts 167°
2026-05-06 19:05 54.90197 9.17275 34950 ft 451 kts 167°
2026-05-06 19:06 54.84086 9.19379 34959 ft 445 kts 180°
2026-05-06 19:06 54.77949 9.19407 34964 ft 444 kts 183°
2026-05-06 19:07 54.71732 9.19400 34958 ft 444 kts 183°
2026-05-06 19:07 54.65557 9.19393 34941 ft 444 kts 182°
2026-05-06 19:08 54.59417 9.19399 34931 ft 445 kts 182°
2026-05-06 19:08 54.53222 9.19402 34946 ft 445 kts 182°
2026-05-06 19:09 54.47022 9.19392 34946 ft 446 kts 182°
2026-05-06 19:09 54.41823 9.19388 34944 ft 446 kts 182°
2026-05-06 19:10 54.35615 9.19397 34936 ft 446 kts 182°
2026-05-06 19:10 54.29396 9.19397 34930 ft 446 kts 182°
2026-05-06 19:11 54.23223 9.19384 34932 ft 447 kts 182°
2026-05-06 19:11 54.17001 9.19375 34929 ft 447 kts 182°
2026-05-06 19:12 54.10784 9.19376 34920 ft 447 kts 182°
2026-05-06 19:12 54.04561 9.19390 34919 ft 447 kts 182°
2026-05-06 19:13 53.98327 9.19388 34913 ft 448 kts 182°
2026-05-06 19:13 53.92097 9.19377 34917 ft 448 kts 182°
2026-05-06 19:14 53.85858 9.19367 34910 ft 448 kts 182°
2026-05-06 19:14 53.79616 9.19358 34913 ft 449 kts 182°
2026-05-06 19:15 53.73413 9.19362 34915 ft 449 kts 182°
2026-05-06 19:15 53.67160 9.19377 34919 ft 449 kts 182°
2026-05-06 19:16 53.60906 9.19368 34928 ft 449 kts 182°
2026-05-06 19:16 53.54653 9.19364 34933 ft 449 kts 182°
2026-05-06 19:17 53.48393 9.19356 34931 ft 450 kts 182°
2026-05-06 19:17 53.42137 9.19352 34930 ft 450 kts 182°
2026-05-06 19:18 53.35877 9.19353 34927 ft 450 kts 182°
2026-05-06 19:18 53.29611 9.19353 34926 ft 450 kts 182°
2026-05-06 19:19 53.23355 9.19358 34933 ft 449 kts 182°
2026-05-06 19:19 53.15779 9.19359 34931 ft 449 kts 182°
2026-05-06 19:20 53.03357 9.19361 34922 ft 448 kts 182°
2026-05-06 19:20 52.83991 9.19346 34907 ft 447 kts 182°
2026-05-06 19:21 52.59120 9.19329 34893 ft 446 kts 182°
2026-05-06 19:21 52.34284 9.19318 34888 ft 446 kts 182°
2026-05-06 19:22 52.09494 9.19305 34880 ft 444 kts 182°
2026-05-06 19:22 51.94842 9.19232 34015 ft 442 kts 187°
2026-05-06 19:22 51.91824 9.18385 34866 ft 440 kts 197°
2026-05-06 19:23 51.88975 9.16675 34843 ft 436 kts 207°
2026-05-06 19:23 51.84100 9.10963 34849 ft 434 kts 227°
2026-05-06 19:24 51.80133 9.03602 34853 ft 435 kts 229°
2026-05-06 19:24 51.76183 8.96286 34856 ft 435 kts 229°
2026-05-06 19:25 51.72206 8.88946 34865 ft 435 kts 229°
2026-05-06 19:25 51.68215 8.81594 34865 ft 436 kts 228°
2026-05-06 19:26 51.64216 8.74253 34876 ft 436 kts 228°
2026-05-06 19:26 51.59844 8.67501 34886 ft 436 kts 222°
2026-05-06 19:26 51.57916 8.63781 34882 ft 436 kts 242°
2026-05-06 19:27 51.56967 8.59183 34873 ft 437 kts 262°
2026-05-06 19:27 51.56136 8.49539 33954 ft 438 kts 244°
2026-05-06 19:27 51.54448 8.45492 32917 ft 439 kts 224°
2026-05-06 19:28 51.51961 8.42653 31826 ft 443 kts 208°
2026-05-06 19:28 51.49204 8.40325 30631 ft 451 kts 208°
2026-05-06 19:28 51.46412 8.37972 29505 ft 455 kts 208°
2026-05-06 19:28 51.43598 8.35604 28258 ft 459 kts 208°
2026-05-06 19:29 51.40758 8.33217 26993 ft 463 kts 208°
2026-05-06 19:29 51.37932 8.30701 25686 ft 466 kts 214°
2026-05-06 19:29 51.35460 8.27335 24558 ft 467 kts 225°
2026-05-06 19:29 51.33187 8.23674 23784 ft 461 kts 225°
2026-05-06 19:30 51.30944 8.20059 22953 ft 455 kts 225°
2026-05-06 19:30 51.28728 8.16489 22070 ft 449 kts 226°
2026-05-06 19:30 51.26542 8.12978 21284 ft 443 kts 226°
2026-05-06 19:30 51.24407 8.09551 20453 ft 439 kts 226°
2026-05-06 19:31 51.22263 8.06108 19590 ft 436 kts 226°
2026-05-06 19:31 51.20126 8.02688 18782 ft 433 kts 226°
2026-05-06 19:31 51.15877 7.95908 16967 ft 427 kts 226°
2026-05-06 19:32 51.13808 7.92625 15865 ft 419 kts 226°
2026-05-06 19:32 51.11757 7.89373 14328 ft 421 kts 226°
2026-05-06 19:32 51.09706 7.86123 13535 ft 402 kts 226°
2026-05-06 19:32 51.07790 7.83092 12738 ft 376 kts 225°
2026-05-06 19:33 51.05790 7.80536 12378 ft 361 kts 214°
2026-05-06 19:33 51.03641 7.78570 11938 ft 353 kts 210°
2026-05-06 19:33 51.01493 7.76722 11366 ft 350 kts 210°
2026-05-06 19:33 50.99357 7.74892 10760 ft 348 kts 209°
2026-05-06 19:34 50.97233 7.73079 10370 ft 345 kts 210°
2026-05-06 19:34 50.95099 7.71262 10231 ft 350 kts 210°
2026-05-06 19:34 50.92954 7.69433 10081 ft 350 kts 209°
2026-05-06 19:34 50.90826 7.67619 9909 ft 343 kts 209°
2026-05-06 19:35 50.88751 7.65856 9455 ft 336 kts 210°
2026-05-06 19:35 50.86694 7.64110 8866 ft 334 kts 209°
2026-05-06 19:35 50.84649 7.62379 8297 ft 332 kts 209°
2026-05-06 19:35 50.82617 7.60659 7729 ft 330 kts 210°
2026-05-06 19:36 50.80599 7.58950 7188 ft 328 kts 210°
2026-05-06 19:36 50.78606 7.57260 6721 ft 323 kts 209°
2026-05-06 19:36 50.76637 7.55593 6162 ft 316 kts 209°
2026-05-06 19:36 50.74796 7.53915 5584 ft 295 kts 220°
2026-05-06 19:37 50.73416 7.51660 5068 ft 278 kts 232°
2026-05-06 19:37 50.72229 7.49341 4556 ft 265 kts 233°
2026-05-06 19:37 50.71117 7.47144 4063 ft 254 kts 235°
2026-05-06 19:37 50.70531 7.45553 3725 ft 243 kts 254°
2026-05-06 19:38 50.70449 7.42196 3215 ft 228 kts 281°
2026-05-06 19:38 50.70721 7.39759 3000 ft 224 kts 283°
2026-05-06 19:38 50.71234 7.37466 3000 ft 219 kts 304°
2026-05-06 19:38 50.72182 7.35778 3004 ft 194 kts 320°
2026-05-06 19:39 50.73152 7.34387 3005 ft 184 kts 320°
2026-05-06 19:39 50.74089 7.33042 3005 ft 180 kts 320°
2026-05-06 19:39 50.75013 7.31716 3004 ft 179 kts 320°
2026-05-06 19:39 50.75916 7.30417 2890 ft 167 kts 320°
2026-05-06 19:40 50.76762 7.29199 2703 ft 162 kts 320°
2026-05-06 19:40 50.77585 7.28016 2496 ft 159 kts 320°
2026-05-06 19:40 50.78397 7.26847 2281 ft 157 kts 320°
2026-05-06 19:40 50.79203 7.25686 2066 ft 156 kts 320°
2026-05-06 19:41 50.79999 7.24539 1851 ft 153 kts 319°
2026-05-06 19:41 50.80755 7.23448 1645 ft 143 kts 319°
2026-05-06 19:41 50.81480 7.22403 1450 ft 140 kts 319°
2026-05-06 19:41 50.82202 7.21362 1241 ft 141 kts 319°
2026-05-06 19:42 50.82937 7.20300 1042 ft 144 kts 317°
2026-05-06 19:42 50.83672 7.19225 808 ft 144 kts 318°
2026-05-06 19:42 50.84404 7.18160 587 ft 144 kts 318°
2026-05-06 19:42 50.85139 7.17099 418 ft 142 kts 319°
2026-05-06 19:43 50.85849 7.16085 305 ft 131 kts 318°
2026-05-06 19:43 50.86412 7.15275 284 ft 83 kts 317°
2026-05-06 19:43 50.86718 7.14837 270 ft 37 kts 319°
2026-05-06 19:43 50.86857 7.14537 261 ft 32 kts 291°
2026-05-06 19:44 50.86895 7.14253 256 ft 15 kts 279°
2026-05-06 19:44 50.86900 7.14205 255 ft 0 kts 279°
2026-05-06 19:44 50.86905 7.14165 255 ft 9 kts 281°
2026-05-06 19:45 50.86949 7.14038 252 ft 17 kts 314°
2026-05-06 19:45 50.87051 7.13888 244 ft 23 kts 317°
2026-05-06 19:45 50.87175 7.13713 239 ft 25 kts 318°
2026-05-06 19:45 50.87313 7.13516 234 ft 28 kts 317°
2026-05-06 19:46 50.87460 7.13302 233 ft 29 kts 317°
2026-05-06 19:46 50.87606 7.13092 233 ft 27 kts 317°
2026-05-06 19:46 50.87714 7.12932 233 ft 16 kts 317°
2026-05-06 19:46 50.87786 7.12801 232 ft 16 kts 285°
2026-05-06 19:47 50.87777 7.12682 232 ft 0 kts 258°
2026-05-06 19:47 50.87775 7.12670 232 ft 3 kts 258°
2026-05-06 19:47 50.87775 7.12638 232 ft 2 kts 301°
2026-05-06 19:47 50.87803 7.12622 232 ft 7 kts 348°
2026-05-06 19:48 50.87861 7.12609 232 ft 9 kts 359°
2026-05-06 19:48 50.87896 7.12550 234 ft 6 kts 289°
2026-05-06 19:48 50.87904 7.12515 232 ft 3 kts 288°
2026-05-06 19:48 50.87908 7.12495 232 ft 0 kts 288°
2026-05-06 19:49 50.87908 7.12494 232 ft 0 kts 288°